Weather History for Huntington, WV

Change the Weather History Date:

Sunday, February 3, 2013

  Actual Average Record
Temperature  
Mean Temperature 28 °F 35 °F  
Max Temperature 31 °F 44 °F 66 °F (1962)
Min Temperature 25 °F 26 °F -4 °F (1951)
Degree Days  
Heating Degree Days 37 30  
Month to date heating degree days 125 90  
Since 1 July heating degree days 2751 2814  
Cooling Degree Days 0 0  
Month to date cooling degree days 0 0  
Year to date cooling degree days 0 0  
Moisture  
Dew Point 22 °F    
Average Humidity 82    
Maximum Humidity 100    
Minimum Humidity 63    
Precipitation  
Precipitation T in 0.11 in 2.58 in (1939)
Month to date precipitation 0.23 0.33  
Year to date precipitation 4.15 3.30  
Snow  
Snow 0.40 in - - ()
Month to date snowfall 5.3  
Since 1 September snowfall 11.7  
Snow Depth 4.00 in    
Sea Level Pressure  
Sea Level Pressure 30.01 in    
Wind  
Wind Speed 8 mph (WSW)    
Max Wind Speed 17 mph    
Max Gust Speed 25 mph    
Visibility 8 miles    
Events Snow    
T = Trace of Precipitation, MM = Missing Value Source: NWS Daily Summary

Daily Weather History Graph

Daily Weather History Graph

Search for Another Location

Airport:

Trip Planner

Search our weather history database for the weather conditions in past years. The results will help you decide how hot, cold, wet, or windy it might be!

Date:

Astronomy

Feb. 03, 2013 Rise Set
Actual Time 7:33 AM EST 5:55 PM EST
Civil Twilight 7:05 AM EST 6:23 PM EST
Nautical Twilight 6:34 AM EST 6:54 PM EST
Astronomical Twilight 6:03 AM EST 7:25 PM EST
Moon 12:59 AM EST (2/3) 11:32 AM EST (2/3)
Length of Visible Light 11h 17m
Length of Day
10h 21m
Waning Gibbous, 49% of the Moon is Illuminated
Feb 3
Waning Gibbous
Feb 10
New
Feb 17
First Quarter
Feb 25
Full
Mar 4
Last Quarter

Hourly Weather History & Observations

Time (EST) Temp. Windchill Dew Point Humidity Pressure Visibility Wind Dir Wind Speed Gust Speed Precip Events Conditions
12:51 AM 30.2 °F 24.3 °F 25.0 °F 81% 30.04 in 10.0 mi WNW 5.8 mph 17.3 mph N/A   Overcast
1:51 AM 32.0 °F 26.4 °F 23.0 °F 69% 30.02 in 10.0 mi WSW 5.8 mph - N/A   Overcast
2:51 AM 28.4 °F 23.3 °F 24.1 °F 84% 30.01 in 10.0 mi SW 4.6 mph - N/A   Overcast
3:51 AM 28.4 °F 23.3 °F 24.1 °F 84% 29.99 in 10.0 mi SW 4.6 mph - N/A   Overcast
4:51 AM 28.4 °F 22.2 °F 24.8 °F 86% 29.94 in 10.0 mi SSW 5.8 mph - N/A   Overcast
5:31 AM 28.4 °F 22.2 °F 23.0 °F 80% 29.93 in 10.0 mi SSW 5.8 mph - N/A   Overcast
5:51 AM 28.4 °F 21.2 °F 22.1 °F 77% 29.95 in 10.0 mi SSW 6.9 mph - N/A   Overcast
6:51 AM 28.4 °F 22.2 °F 24.8 °F 86% 29.94 in 10.0 mi SSW 5.8 mph - N/A   Overcast
6:59 AM 42.8 °F 39.3 °F 23.0 °F 46% 29.91 in 10.0 mi SSW 5.8 mph - N/A   Overcast
7:06 AM 37.4 °F 31.4 °F 23.0 °F 56% 29.91 in 10.0 mi SW 8.1 mph - N/A   Overcast
7:51 AM 28.4 °F 22.2 °F 23.0 °F 80% 29.91 in 10.0 mi SW 5.8 mph - N/A   Overcast
8:20 AM 28.4 °F 22.2 °F 23.0 °F 80% 29.92 in 10.0 mi WSW 5.8 mph - N/A   Overcast
8:51 AM 28.4 °F 21.2 °F 23.0 °F 80% 29.95 in 10.0 mi WSW 6.9 mph - N/A   Overcast
9:51 AM 28.4 °F 18.0 °F 23.0 °F 80% 29.96 in 5.0 mi West 12.7 mph 19.6 mph 0.00 in Snow Light Snow
10:51 AM 30.9 °F 23.5 °F 19.0 °F 61% 29.96 in 6.0 mi West 8.1 mph 18.4 mph 0.00 in Snow Light Snow
11:07 AM 28.4 °F 19.1 °F 21.2 °F 74% 29.94 in 1.8 mi West 10.4 mph - 0.00 in Snow Light Snow
11:28 AM 28.4 °F 17.0 °F 21.2 °F 74% 29.94 in 6.0 mi West 15.0 mph 24.2 mph 0.00 in   Overcast
11:51 AM 28.4 °F 18.5 °F 21.2 °F 74% 29.96 in 7.0 mi West 11.5 mph 20.7 mph 0.00 in   Overcast
12:51 PM 26.6 °F 16.8 °F 19.0 °F 73% 29.96 in 10.0 mi West 10.4 mph 16.1 mph 0.00 in   Overcast
1:51 PM 26.6 °F 20.0 °F 19.9 °F 76% 29.96 in 10.0 mi Variable 5.8 mph - N/A   Overcast
2:51 PM 28.4 °F 19.1 °F 18.0 °F 65% 29.98 in 10.0 mi West 10.4 mph 16.1 mph N/A   Overcast
3:51 PM 28.4 °F 20.4 °F 18.0 °F 65% 30.01 in 10.0 mi WNW 8.1 mph 20.7 mph N/A   Overcast
4:08 PM 32.0 °F 23.0 °F 17.6 °F 55% 30.00 in 10.0 mi West 11.5 mph 16.1 mph N/A   Overcast
4:51 PM 30.9 °F 22.2 °F 19.0 °F 61% 30.04 in 10.0 mi West 10.4 mph - N/A   Overcast
5:44 PM 26.6 °F 15.2 °F 21.2 °F 80% 30.04 in 1.0 mi West 13.8 mph 19.6 mph 0.00 in Snow Light Snow
5:51 PM 26.6 °F 16.2 °F 21.2 °F 80% 30.07 in 1.0 mi West 11.5 mph 19.6 mph 0.00 in Snow Light Snow
6:35 PM 28.4 °F 22.2 °F 21.2 °F 74% 30.06 in 5.0 mi WSW 5.8 mph - N/A Snow Light Snow
6:42 PM 28.4 °F 21.2 °F 21.2 °F 74% 30.07 in 6.0 mi West 6.9 mph - 0.00 in Snow Light Snow
6:49 PM 26.6 °F 21.2 °F 23.0 °F 86% 30.07 in 7.0 mi West 4.6 mph - 0.00 in Snow Light Snow
6:51 PM 26.6 °F 21.2 °F 23.0 °F 86% 30.10 in 8.0 mi West 4.6 mph - 0.00 in Snow Light Snow
7:51 PM 28.0 °F 18.6 °F 21.0 °F 75% 30.12 in 10.0 mi WSW 10.4 mph - 0.00 in   Overcast
8:51 PM 28.0 °F 20.0 °F 21.0 °F 75% 30.14 in 7.0 mi WSW 8.1 mph - 0.00 in Snow Light Snow
9:51 PM 28.0 °F 19.3 °F 17.1 °F 63% 30.16 in 7.0 mi WSW 9.2 mph 17.3 mph 0.00 in   Overcast
10:51 PM 24.8 °F 16.9 °F 17.6 °F 74% 30.16 in 10.0 mi SW 6.9 mph - N/A   Overcast
11:51 PM 24.8 °F 19.1 °F 17.6 °F 74% 30.16 in 10.0 mi SW 4.6 mph - N/A   Scattered Clouds